GW7365 Weather Reports


time (UTC)temp
F
wind
direction
speed
knots
gust
knots
rain 1hr
in
rain 24hr
in
rain mn
in
humidity
%
barometer
mb
20260506013801 50 358 10.4 14.8 0.00 0.04 0.00 86 1008.0
20260506013304 50 7 10.4 14.8 0.00 0.04 0.00 87 1007.9
20260506012803 50 359 9.6 13.0 0.00 0.04 0.00 87 1008.0
20260506012301 50 351 8.7 12.2 0.00 0.04 0.00 87 1008.1
20260506011800 49 2 7.8 12.2 0.00 0.04 0.00 87 1008.2
20260506011301 49 358 7.8 12.2 0.00 0.04 0.00 87 1008.2
20260506010757 49 358 7.0 11.3 0.00 0.04 0.00 88 1008.2
20260506010257 49 311 7.0 9.6 0.00 0.04 0.00 87 1008.2
20260506005757 49 29 7.0 9.6 0.00 0.04 0.00 87 1008.3
20260506005258 49 349 7.0 10.4 0.00 0.04 0.00 87 1008.4
20260506004757 49 1 7.0 10.4 0.00 0.04 0.00 87 1008.4
20260506004256 49 14 7.0 9.6 0.00 0.04 0.00 89 1008.5
20260506003756 48 6 7.0 9.6 0.00 0.04 0.00 89 1008.5
20260506003255 48 359 7.0 9.6 0.00 0.04 0.00 89 1008.6
20260506002755 48 339 7.0 9.6 0.00 0.04 0.00 89 1008.6
20260506002252 48 8 6.1 9.6 0.00 0.04 0.00 90 1008.6
20260506001749 47 358 5.2 7.8 0.00 0.04 0.00 90 1008.7
20260506001249 47 337 5.2 7.8 0.00 0.04 0.00 90 1008.7
20260506000745 47 335 5.2 7.8 0.00 0.04 0.00 90 1008.8
20260506000247 47 333 6.1 7.8 0.00 0.04 0.00 89 1008.7
20260505235745 47 341 6.1 8.7 0.00 0.04 0.00 89 1008.8
20260505235515 47 349 6.1 8.7 0.00 0.04 0.00 88 1008.9
20260505234745 47 328 5.2 7.8 0.00 0.04 0.00 87 1008.9
20260505234246 47 324 5.2 7.8 0.00 0.04 0.00 87 1008.9
20260505233746 47 331 5.2 7.8 0.00 0.04 0.00 87 1008.9
20260505233515 48 323 5.2 7.8 0.00 0.04 0.00 87 1009.0
20260505232746 48 327 6.1 8.7 0.00 0.04 0.00 87 1009.1
20260505232514 48 340 7.0 10.4 0.00 0.04 0.00 87 1009.1
20260505231746 48 358 7.8 10.4 0.00 0.04 0.00 86 1009.2
20260505231246 48 8 7.8 10.4 0.00 0.04 0.00 85 1009.1
20260505230746 48 11 7.8 11.3 0.00 0.04 0.00 84 1009.2
20260505230247 48 10 7.8 11.3 0.00 0.04 0.00 84 1009.2
20260505230021 48 20 7.8 11.3 0.00 0.04 0.00 84 1009.3
20260505225244 48 10 7.8 11.3 0.00 0.04 0.00 83 1009.3
20260505224743 47 18 7.8 9.6 0.00 0.04 0.00 83 1009.2
20260505224243 47 12 7.0 8.7 0.00 0.04 0.00 84 1009.3
20260505223744 47 19 7.0 8.7 0.00 0.04 0.00 84 1009.3
20260505223244 47 16 6.1 8.7 0.00 0.04 0.00 84 1009.4
20260505222743 47 18 6.1 7.8 0.00 0.04 0.00 84 1009.4
20260505222244 47 15 6.1 8.7 0.00 0.04 0.00 85 1009.5
20260505221744 47 26 7.0 8.7 0.00 0.04 0.00 83 1009.4
20260505221510 48 20 7.0 9.6 0.00 0.04 0.00 82 1009.5
20260505220741 48 17 7.0 9.6 0.00 0.04 0.00 82 1009.5
20260505220251 49 13 8.7 11.3 0.00 0.04 0.04 81 1009.5
20260505220247 48 11 7.8 11.3 0.00 0.04 0.00 82 1009.5
20260505215238 49 13 9.6 12.2 0.00 0.04 0.04 80 1009.4
20260505214736 49 4 9.6 13.0 0.00 0.04 0.04 80 1009.4
20260505214235 49 12 9.6 13.0 0.00 0.04 0.04 78 1009.5
20260505213736 49 1 8.7 13.9 0.00 0.04 0.04 79 1009.5
20260505213236 50 9 8.7 13.9 0.00 0.04 0.04 78 1009.5
20260505212735 50 4 9.6 13.9 0.00 0.04 0.04 77 1009.5
20260505212502 50 11 9.6 13.9 0.00 0.04 0.04 78 1009.5
20260505212006 50 3 10.4 13.9 0.00 0.04 0.04 77 1009.5
20260505211236 50 0 10.4 13.9 0.00 0.04 0.04 77 1009.4
20260505210736 50 358 10.4 13.9 0.00 0.04 0.04 78 1009.5
20260505210238 50 9 10.4 13.9 0.00 0.04 0.04 78 1009.5
20260505205746 50 10 11.3 15.6 0.00 0.04 0.04 78 1009.7
20260505205740 50 3 10.4 13.0 0.00 0.04 0.04 78 1009.6
20260505204736 50 2 11.3 15.6 0.00 0.04 0.04 78 1009.7
20260505204233 50 11 11.3 16.5 0.00 0.04 0.04 78 1009.6
20260505203733 50 11 11.3 17.4 0.00 0.04 0.04 78 1009.7
20260505203234 50 22 11.3 17.4 0.00 0.04 0.04 78 1009.7
20260505202733 50 11 9.6 13.9 0.00 0.04 0.04 78 1009.6
20260505202512 50 359 10.4 14.8 0.00 0.04 0.04 80 1009.7
20260505201733 50 5 10.4 14.8 0.00 0.04 0.04 79 1009.7
20260505201512 50 5 11.3 14.8 0.00 0.04 0.04 79 1009.7
20260505200747 50 2 11.3 14.8 0.00 0.04 0.04 79 1009.7
20260505200742 50 7 11.3 14.8 0.00 0.04 0.04 79 1009.6
20260505195732 51 8 11.3 15.6 0.00 0.04 0.04 79 1009.6
20260505195512 51 7 11.3 15.6 0.00 0.04 0.04 79 1009.6
20260505194731 51 8 12.2 17.4 0.00 0.04 0.04 79 1009.5
20260505194228 51 10 13.0 17.4 0.00 0.04 0.04 79 1009.4
20260505193726 51 6 13.0 17.4 0.00 0.04 0.04 79 1009.3
20260505193222 51 3 12.2 16.5 0.00 0.04 0.04 78 1009.5
20260505192723 51 359 13.0 20.0 0.00 0.04 0.04 79 1009.4
20260505192222 51 0 14.8 21.7 0.00 0.04 0.04 78 1009.3
20260505191958 51 8 15.6 21.7 0.00 0.04 0.04 78 1009.2
20260505191223 52 10 14.8 21.7 0.01 0.04 0.04 78 1009.0
20260505190723 52 11 14.8 22.6 0.01 0.04 0.04 78 1008.9
20260505190514 52 11 14.8 22.6 0.01 0.04 0.04 78 1009.0
20260505185723 52 6 14.8 20.9 0.00 0.03 0.03 77 1009.0
20260505185222 52 13 13.9 18.2 0.00 0.03 0.03 77 1008.8
20260505184723 52 7 13.0 18.2 0.00 0.03 0.03 77 1008.9
20260505184223 52 12 13.9 20.0 0.00 0.03 0.03 77 1008.7
20260505183721 53 4 14.8 20.0 0.01 0.03 0.03 76 1008.8
20260505183218 53 10 13.9 19.1 0.01 0.03 0.03 76 1008.8
20260505182717 53 0 14.8 20.9 0.01 0.03 0.03 77 1008.7
20260505182217 53 5 14.8 20.9 0.01 0.03 0.03 76 1008.8
20260505181718 53 10 13.9 19.1 0.01 0.03 0.03 77 1008.9
20260505181218 53 11 13.0 19.1 0.01 0.03 0.03 76 1008.7
20260505180718 53 4 13.9 22.6 0.01 0.03 0.03 76 1008.9
20260505180218 54 14 15.6 23.5 0.01 0.03 0.03 74 1008.9
20260505175718 54 7 14.8 23.5 0.01 0.03 0.03 74 1008.6
20260505175216 54 10 14.8 24.3 0.01 0.03 0.03 74 1008.5
20260505174715 54 7 17.4 25.2 0.02 0.03 0.03 74 1008.7
20260505174215 54 11 16.5 25.2 0.02 0.03 0.03 73 1008.4
20260505173715 54 10 13.9 21.7 0.02 0.02 0.02 73 1008.6
20260505173215 55 4 13.0 20.0 0.01 0.02 0.02 72 1008.3
20260505172714 55 307 12.2 20.0 0.01 0.02 0.02 74 1008.7
20260505172212 55 9 12.2 20.0 0.01 0.02 0.02 72 1008.8
20260505171712 55 356 12.2 20.0 0.02 0.02 0.02 71 1008.8
20260505171213 55 4 13.0 20.9 0.02 0.02 0.02 72 1008.8
20260505170712 55 9 13.9 20.9 0.02 0.02 0.02 71 1008.9
20260505170213 55 14 13.0 20.0 0.01 0.02 0.02 71 1008.9
20260505165713 55 1 13.9 23.5 0.01 0.02 0.02 70 1009.0
20260505165213 55 356 14.8 23.5 0.01 0.02 0.02 70 1008.9
20260505164712 55 5 13.9 20.0 0.01 0.01 0.01 70 1009.0
20260505164513 56 358 12.2 18.2 0.00 0.01 0.01 70 1008.8
20260505164215 56 1 12.2 18.2 0.01 0.01 0.01 71 1009.0
20260505163447 56 9 13.0 22.6 0.00 0.01 0.01 71 1008.9
20260505162712 55 4 14.8 22.6 0.01 0.01 0.01 71 1009.0
20260505162448 55 347 13.0 22.6 0.01 0.01 0.00 71 1008.7
20260505161946 55 359 11.3 18.2 0.00 0.00 0.00 71 1008.9
20260505161212 56 347 12.2 20.0 0.00 0.00 0.00 72 1009.1
20260505160713 56 2 13.0 20.0 0.00 0.00 0.00 71 1009.1
20260505160213 56 12 12.2 17.4 0.00 0.00 0.00 73 1009.0
20260505153211 56 6 10.4 16.5 0.00 0.00 0.00 72 1008.9
20260505152715 56 351 10.4 15.6 0.00 0.00 0.00 73 1009.0
20260505152709 56 346 10.4 15.6 0.00 0.00 0.00 72 1009.1
20260505151709 56 1 10.4 15.6 0.00 0.00 0.00 74 1009.0
20260505151209 56 3 11.3 16.5 0.00 0.00 0.00 72 1009.2
20260505150710 56 4 12.2 16.5 0.00 0.00 0.00 72 1009.2
20260505150209 56 14 11.3 16.5 0.00 0.00 0.00 73 1009.3
20260505140445 56 2 10.4 16.5 0.00 0.00 0.00 74 1009.4
20260505130204 56 356 3.5 10.4 0.00 0.00 0.00 76 1010.1
20260505124702 55 46 7.0 12.2 0.00 0.00 0.00 78 1010.1
20260505124201 55 10 7.0 12.2 0.00 0.00 0.00 78 1010.1
20260505123701 55 31 7.0 12.2 0.00 0.00 0.00 77 1010.1
20260505123202 55 24 7.0 12.2 0.00 0.00 0.00 78 1010.1
20260505122944 54 57 7.0 12.2 0.00 0.00 0.00 80 1010.2
20260505122203 54 34 7.8 12.2 0.00 0.00 0.00 80 1010.1
20260505121702 54 25 7.8 12.2 0.00 0.00 0.00 79 1010.1
20260505121159 54 29 7.8 15.6 0.00 0.00 0.00 78 1010.2
20260505120656 54 44 9.6 15.6 0.00 0.00 0.00 81 1010.1
20260505120156 54 37 7.8 15.6 0.00 0.00 0.00 80 1010.1
20260505115656 54 38 7.0 12.2 0.00 0.00 0.00 79 1010.3
20260505115156 53 41 7.8 12.2 0.00 0.00 0.00 82 1010.3
20260505114656 53 22 7.8 13.0 0.00 0.00 0.00 80 1010.3
20260505114156 53 28 9.6 14.8 0.00 0.00 0.00 82 1010.2
20260505113657 53 359 9.6 14.8 0.00 0.00 0.00 80 1010.3
20260505113157 53 6 9.6 14.8 0.00 0.00 0.00 83 1010.2
20260505112656 53 28 10.4 15.6 0.00 0.00 0.00 86 1010.3
20260505112158 52 15 10.4 15.6 0.00 0.00 0.00 85 1010.4
20260505111657 52 4 9.6 13.9 0.00 0.00 0.00 86 1010.4
20260505111157 52 13 10.4 14.8 0.00 0.00 0.00 86 1010.5
20260505110928 52 10 11.3 14.8 0.00 0.00 0.00 86 1010.6
20260505110157 52 14 9.6 13.9 0.00 0.00 0.00 86 1010.6
20260505102155 51 1 12.2 16.5 0.00 0.00 0.00 89 1010.8
20260505101937 51 13 13.0 16.5 0.00 0.00 0.00 90 1010.7
20260505101154 51 5 12.2 16.5 0.00 0.00 0.00 89 1010.6
20260505100925 51 9 11.3 16.5 0.00 0.00 0.00 90 1010.7
20260505100153 51 17 10.4 13.9 0.00 0.00 0.00 92 1010.7
20260505095650 51 9 10.4 13.9 0.00 0.00 0.00 90 1010.8
20260505095149 51 4 10.4 13.9 0.00 0.00 0.00 92 1010.8
20260505094650 50 9 11.3 14.8 0.00 0.00 0.00 91 1010.9
20260505094150 50 29 11.3 15.6 0.00 0.00 0.00 92 1011.0
20260505093650 50 13 12.2 16.5 0.00 0.00 0.00 91 1010.9
20260505093149 50 22 11.3 16.5 0.00 0.00 0.00 91 1010.9
20260505092649 50 24 11.3 14.8 0.00 0.00 0.00 90 1011.0
20260505092151 50 15 10.4 16.5 0.00 0.00 0.00 91 1011.0
20260505091650 50 19 10.4 16.5 0.00 0.00 0.00 92 1011.1
20260505091150 50 29 10.4 16.5 0.00 0.00 0.00 91 1011.0
20260505090650 50 26 9.6 13.0 0.00 0.00 0.00 92 1011.0
20260505090150 50 20 8.7 11.3 0.00 0.00 0.00 92 1011.0
20260505085647 50 14 8.7 13.0 0.00 0.00 0.00 91 1011.0
20260505085147 50 23 8.7 13.0 0.00 0.00 0.00 92 1010.9
20260505084647 50 18 10.4 15.6 0.00 0.00 0.00 92 1010.9
20260505084147 50 26 11.3 15.6 0.00 0.00 0.00 92 1010.8
20260505083644 50 14 11.3 15.6 0.00 0.00 0.00 92 1010.7
20260505083145 50 15 10.4 15.6 0.00 0.00 0.00 92 1010.8
20260505082645 50 26 13.0 20.0 0.00 0.00 0.00 91 1010.8
20260505082148 50 25 13.9 20.0 0.00 0.00 0.00 92 1010.9
20260505081645 49 11 11.3 19.1 0.00 0.00 0.00 92 1010.7
20260505081145 50 31 11.3 16.5 0.00 0.00 0.00 94 1010.9
20260505080645 50 28 12.2 17.4 0.00 0.00 0.00 93 1010.7
20260505080144 50 24 11.3 17.4 0.00 0.00 0.00 94 1010.9
20260505075644 50 31 10.4 15.6 0.00 0.00 0.00 93 1010.9
20260505075416 49 26 10.4 17.4 0.00 0.00 0.00 94 1010.9
20260505074639 49 26 11.3 17.4 0.00 0.00 0.00 94 1010.9
20260505074139 49 34 12.2 17.4 0.00 0.00 0.00 95 1010.7
20260505073928 49 18 13.0 18.2 0.00 0.00 0.00 95 1010.8
20260505073136 49 23 13.9 18.2 0.00 0.00 0.00 95 1010.9
20260505072637 49 18 12.2 17.4 0.00 0.00 0.00 96 1010.9
20260505072146 49 14 15.6 20.0 0.00 0.00 0.00 96 1010.9
20260505072140 49 21 13.9 20.0 0.00 0.00 0.00 96 1010.9
20260505071137 49 21 14.8 20.0 0.00 0.00 0.00 96 1010.8
20260505070637 49 16 13.9 20.0 0.00 0.00 0.00 96 1010.9
20260505070137 49 17 13.0 17.4 0.00 0.00 0.00 96 1010.8
20260505065637 49 17 13.0 19.1 0.00 0.00 0.00 97 1010.9
20260505065136 49 16 12.2 19.1 0.00 0.00 0.00 97 1011.0
20260505064637 49 4 9.6 17.4 0.00 0.00 0.00 97 1011.0
20260505064137 49 29 9.6 16.5 0.00 0.00 0.00 98 1011.1
20260505063635 49 15 11.3 16.5 0.00 0.00 0.00 98 1011.2
20260505063132 49 32 11.3 14.8 0.00 0.00 0.00 98 1011.2
20260505062631 49 25 11.3 15.6 0.00 0.00 0.00 98 1011.2
20260505062131 49 29 11.3 15.6 0.00 0.00 0.00 98 1011.2
20260505061631 49 25 8.7 15.6 0.00 0.00 0.00 98 1011.2
20260505061132 49 37 7.8 13.0 0.00 0.00 0.00 99 1011.4
20260505060631 49 34 9.6 13.0 0.00 0.00 0.00 99 1011.5
20260505060417 49 28 10.4 13.0 0.00 0.00 0.00 98 1011.4
20260505055631 49 12 10.4 13.9 0.00 0.00 0.00 99 1011.3
20260505055131 49 24 11.3 15.6 0.00 0.00 0.00 99 1011.3
20260505054631 49 13 11.3 15.6 0.00 0.00 0.00 98 1011.4
20260505054132 49 31 10.4 16.5 0.00 0.00 0.00 98 1011.4
20260505053905 49 20 10.4 16.5 0.00 0.00 0.00 99 1011.5
20260505053147 49 18 10.4 14.8 0.00 0.00 0.00 99 1011.1
20260505053142 49 23 9.6 14.8 0.00 0.00 0.00 98 1011.2
20260505052131 49 8 9.6 13.9 0.00 0.00 0.00 98 1011.0
20260505051902 49 14 10.4 14.8 0.00 0.00 0.00 99 1011.1
20260505051407 49 16 11.3 16.5 0.00 0.00 0.00 98 1010.9
20260505050631 49 12 10.4 16.5 0.00 0.00 0.00 98 1010.9
20260505050131 49 18 10.4 17.4 0.00 0.00 0.00 99 1011.0
20260505041128 49 16 11.3 15.6 0.00 0.00 0.00 97 1010.9
20260505040629 49 13 9.6 13.0 0.00 0.00 0.00 97 1010.9
20260505040129 50 20 9.6 13.0 0.00 0.00 0.00 97 1011.0
20260505035629 50 2 10.4 13.9 0.00 0.00 0.00 96 1010.9
20260505035129 50 12 10.4 13.9 0.00 0.00 0.00 96 1010.8
20260505034914 50 11 10.4 13.9 0.00 0.00 0.00 97 1010.9
20260505034129 50 7 9.6 13.0 0.00 0.00 0.00 97 1010.9
20260505033628 50 14 10.4 15.6 0.00 0.00 0.00 97 1011.0
20260505033404 50 350 11.3 15.6 0.00 0.00 0.00 97 1011.0
20260505032629 50 12 12.2 17.4 0.00 0.00 0.00 97 1011.1
20260505032129 50 5 12.2 17.4 0.00 0.00 0.00 96 1011.2
20260505031629 50 2 11.3 16.5 0.00 0.00 0.00 97 1010.9
20260505031129 50 1 9.6 13.9 0.00 0.00 0.00 96 1010.9
20260505030627 50 357 9.6 14.8 0.00 0.00 0.00 96 1011.0
20260505030133 50 3 9.6 14.8 0.00 0.00 0.00 96 1010.9
20260505025632 50 10 10.4 13.9 0.00 0.00 0.00 95 1010.9
20260505025128 50 7 9.6 13.0 0.00 0.00 0.00 95 1011.0
20260505024627 50 11 9.6 13.0 0.00 0.00 0.00 95 1011.1
20260505024407 50 0 9.6 14.8 0.00 0.00 0.00 95 1011.1
20260505023624 50 6 9.6 14.8 0.00 0.00 0.00 95 1011.1
20260505023356 50 8 10.4 13.9 0.00 0.00 0.00 95 1011.2
20260505022625 50 7 10.4 14.8 0.00 0.00 0.00 94 1011.2
20260505022355 50 3 11.3 15.6 0.00 0.00 0.00 94 1011.2
20260505021621 50 9 11.3 18.2 0.00 0.00 0.00 94 1011.2
20260505021122 50 1 12.2 18.2 0.00 0.00 0.00 94 1011.0
20260505020852 50 4 12.2 18.2 0.00 0.00 0.00 94 1011.0
20260505020119 50 354 11.3 16.5 0.00 0.00 0.00 94 1011.1
20260505015619 50 359 11.3 15.6 0.00 0.00 0.00 94 1010.9
20260505015119 50 13 10.4 14.8 0.00 0.00 0.00 95 1011.1
20260505014619 51 359 11.3 16.5 0.00 0.00 0.00 95 1011.3
20260505014119 51 3 12.2 17.4 0.00 0.00 0.00 94 1011.2